Location: Zagreb
(45.8150°N, 15.9819°E)
Time: 10:21:52
(UTC+02:00)

HTV-X1 - Visible Passes

Search period start: 08 May 2026 00:00
Search period end: 18 May 2026 00:00
Orbit: 373 x 383 km, 51.6° (Epoch: 8 May)

Date Brightness Start Highest point End Pass type
(mag) Time Alt. Az. Time Alt. Az. Time Alt. Az.
8 May ? 02:55:25 26° NW 02:56:44 41° NNE 02:59:42 10° E visible
8 May ? 04:29:42 10° WNW 04:32:37 38° SW 04:35:32 10° SSE visible
8 May ? 21:06:05 10° SSE 21:07:43 14° SE 21:07:54 14° SE visible
8 May ? 22:40:07 10° WSW 22:40:17 11° WSW 22:40:17 11° WSW visible
9 May ? 01:58:11 13° ENE 01:58:11 13° ENE 01:58:36 10° ENE visible
9 May ? 03:30:25 27° WNW 03:31:55 80° SSW 03:35:02 10° ESE visible
9 May ? 21:39:31 10° SW 21:42:28 43° SE 21:45:22 10° ENE visible
9 May ? 23:15:28 10° W 23:17:38 32° NW 23:17:38 32° NW visible
10 May ? 04:07:09 24° SSW 04:07:09 24° SSW 04:09:25 10° SSE visible
10 May ? 22:14:25 10° WSW 22:17:28 62° NNW 22:20:33 10° ENE visible
10 May ? 23:51:02 10° WNW 23:53:07 25° NNW 23:53:07 25° NNW visible
11 May ? 21:13:34 10° SW 21:16:38 68° SSE 21:19:42 10° ENE visible
11 May ? 22:49:53 10° WNW 22:52:42 32° NNW 22:55:15 12° NE visible
12 May ? 00:26:23 10° NW 00:27:22 17° NW 00:27:22 17° NW visible
12 May ? 21:48:42 10° W 21:51:41 45° NNW 21:54:42 10° NE visible
12 May ? 23:25:22 10° WNW 23:28:03 26° N 23:29:00 22° NNE visible
13 May ? 20:47:39 10° WSW 20:50:44 80° NNW 20:53:50 10° ENE visible
13 May ? 22:24:11 10° WNW 22:26:56 28° N 22:29:41 10° NE visible
14 May ? 00:00:32 10° NW 00:02:30 26° NNW 00:02:30 26° NNW visible
14 May ? 21:22:56 10° W 21:25:50 36° NNW 21:28:44 10° NE visible
14 May ? 22:59:32 10° WNW 23:02:14 27° N 23:03:47 18° NE visible
15 May ? 00:35:27 10° WNW 00:35:52 13° NW 00:35:52 13° NW visible
15 May ? 21:58:23 10° WNW 22:01:04 26° N 22:03:46 10° ENE visible
15 May ? 23:34:33 10° NW 23:37:05 36° N 23:37:05 36° N visible
16 May ? 20:57:06 10° WNW 20:59:54 31° NNW 21:02:43 10° NE visible
16 May ? 22:33:34 10° NW 22:36:20 29° N 22:38:14 16° ENE visible
17 May ? 00:09:24 10° WNW 00:10:19 18° WNW 00:10:19 18° WNW visible
17 May ? 21:32:27 10° WNW 21:35:08 26° N 21:37:48 10° ENE visible
17 May ? 23:08:26 10° NW 23:11:27 48° NNE 23:11:27 48° NNE visible
